Theta_e
338 339 342 345 347 347 348 347 347 347 347 345 345 345 344 343 343 342 341 341 339 340 340 341 348 348 348 349 349 348 348 348 348 347 347 347 347 347 347 347 347 347 346 345 345 345 345 344 343 343 342 341 342 344 344 345 345 345 345 345 345 345 345 345 345 344 346 344 345 345 346 345 346 345 345 344 343 343 341 342 341 338 339 339 341
338 341 344 347 347 346 347 348 347 348 347 346 345 344 343 343 342 342 341 341 341 341 341 341 348 348 348 348 348 348 347 348 347 347 347 346 346 345 345 344 344 344 343 343 343 344 343 342 341 341 340 341 342 343 343 343 343 344 344 344 343 343 343 343 343 343 343 344 346 346 344 344 344 344 344 344 342 342 341 342 341 338 338 340 340
342 342 345 347 347 346 347 347 347 348 347 346 345 344 343 342 341 340 340 341 341 341 341 343 349 349 349 348 348 347 347 347 346 346 345 345 345 344 344 343 343 343 343 341 343 342 341 340 340 340 340 339 341 341 342 341 342 343 343 343 342 342 341 341 341 341 341 340 341 343 344 344 344 343 344 344 343 342 341 341 341 341 339 342 342
341 343 345 347 345 346 347 347 347 346 345 345 345 344 343 342 342 341 341 341 341 340 340 340 347 348 348 347 347 347 347 346 345 345 345 344 344 344 343 343 342 341 342 342 342 342 340 340 340 339 338 339 338 340 339 340 341 342 342 342 342 341 341 341 341 341 340 340 339 339 340 340 340 342 343 345 345 345 342 342 342 343 343 343 342
342 343 345 345 345 345 346 345 346 347 346 345 345 343 342 342 341 341 340 338 338 339 340 340 341 346 346 347 346 345 347 347 345 343 343 343 343 342 341 342 341 341 340 343 342 340 340 339 339 338 337 337 337 339 338 339 340 340 341 342 342 342 342 341 341 340 339 339 338 338 339 338 340 342 343 345 345 342 341 341 341 342 341 341 342
343 345 346 345 344 344 344 344 346 347 346 345 344 344 344 342 342 341 340 341 341 341 341 341 345 345 345 346 346 346 345 344 343 343 341 341 342 341 341 340 340 339 342 342 341 341 340 339 339 339 338 337 337 337 337 337 338 339 340 341 342 342 341 341 340 338 337 338 338 340 341 341 340 339 343 344 343 340 340 340 341 341 340 341 340
343 345 346 346 345 344 343 345 347 346 345 345 343 343 343 342 341 341 341 341 341 341 341 342 345 344 344 344 345 346 345 343 341 341 341 340 340 340 339 338 340 341 341 342 342 342 341 339 338 337 340 338 337 337 338 339 339 340 339 341 341 341 340 339 338 337 336 338 339 339 339 339 339 339 341 343 341 340 340 341 342 342 341 341 340
344 345 346 346 346 345 343 346 347 346 346 345 345 344 344 343 342 341 340 340 340 340 341 344 344 343 343 343 345 346 346 343 342 341 340 339 340 340 339 339 339 340 339 341 341 341 341 341 340 337 336 336 337 338 339 339 339 339 340 340 341 340 339 338 337 336 337 338 339 338 338 338 339 338 340 340 342 340 340 341 341 341 340 339 336
343 345 345 346 348 344 345 346 347 346 346 346 345 344 344 342 341 341 340 340 340 340 340 342 344 344 343 343 345 346 344 342 340 339 339 339 339 338 338 338 339 340 342 341 339 338 339 340 339 339 338 339 339 339 339 338 339 340 340 340 340 339 338 337 336 335 336 337 338 337 338 337 337 337 340 341 341 340 339 338 339 338 337 336 335
343 344 345 346 348 342 345 345 347 347 347 346 345 345 344 343 342 341 340 340 339 339 341 344 344 344 344 344 345 344 343 341 339 339 338 337 338 338 337 338 339 339 338 339 341 341 341 341 340 340 340 339 338 338 339 339 339 340 340 340 340 339 337 336 335 335 337 337 337 337 338 337 337 337 339 340 340 338 336 333 335 335 334 334 334
343 344 345 346 347 342 346 348 348 347 346 346 346 345 345 344 343 342 340 340 340 340 339 342 344 344 344 345 345 344 343 341 338 338 338 337 337 336 336 338 338 339 339 341 342 341 342 342 340 340 340 340 339 339 339 339 339 339 339 339 339 338 336 335 334 335 336 336 336 336 335 336 336 336 339 339 338 337 334 334 334 335 334 333 333
342 343 344 344 345 341 346 346 346 347 346 347 346 345 346 344 343 342 341 340 340 340 339 345 344 343 343 344 344 344 342 339 337 336 337 337 336 336 338 338 338 338 341 341 342 342 341 340 339 340 339 339 339 339 339 339 340 339 338 338 337 336 334 333 334 334 335 335 335 335 335 334 335 335 338 339 337 336 333 333 333 334 334 333 332
341 343 343 344 346 341 344 346 345 347 347 347 346 346 345 344 343 342 341 341 340 340 339 339 342 342 343 343 342 342 342 340 337 336 336 336 336 338 338 337 337 338 338 339 339 340 340 340 339 340 340 339 339 339 339 338 338 338 337 336 335 333 331 330 333 334 335 335 335 334 334 335 334 336 337 338 336 335 333 333 332 332 331 331 330
340 341 343 345 345 345 340 342 343 345 347 347 346 346 345 344 343 343 342 341 341 340 339 341 342 341 342 342 341 341 341 339 337 336 335 335 336 336 336 336 338 338 338 338 339 339 339 340 340 338 338 338 337 337 338 338 338 337 336 335 333 331 328 328 331 334 334 335 335 335 335 334 334 335 336 335 334 333 332 332 331 330 330 329 329
340 341 343 344 345 346 342 339 342 342 344 346 346 346 345 344 343 342 342 341 341 340 339 339 341 342 341 340 340 341 341 339 337 336 335 335 334 334 336 336 336 337 337 338 339 339 339 339 339 338 338 337 336 337 337 337 336 336 335 333 331 329 327 331 332 334 334 334 335 334 334 334 335 336 334 334 333 332 331 331 329 329 328 327 327
341 341 343 343 344 345 346 341 337 337 341 343 344 344 345 345 343 342 342 341 341 340 339 339 341 339 339 339 341 342 342 340 338 335 334 336 334 334 336 337 337 337 337 340 339 338 338 338 338 337 336 336 336 336 337 336 335 335 333 331 329 327 326 328 333 333 333 333 333 335 335 334 335 334 333 333 332 331 329 329 328 327 327 327 327
340 342 341 342 344 344 345 345 341 334 335 336 339 340 342 344 344 343 343 342 342 340 339 338 339 337 337 339 341 341 341 339 338 336 337 336 334 336 336 335 336 335 335 334 337 338 338 337 336 336 335 335 336 337 336 335 334 333 332 330 328 327 324 325 332 332 331 332 333 334 332 333 333 333 332 332 330 329 328 328 327 326 326 326 324
340 341 341 341 343 343 344 344 342 343 344 338 333 337 340 342 342 341 342 342 341 341 340 340 340 339 339 339 340 340 340 338 338 338 338 336 336 336 337 334 334 334 335 337 338 337 336 336 336 335 335 336 336 336 335 334 333 331 329 329 327 326 324 325 331 331 332 332 333 334 333 332 332 331 331 330 329 328 327 326 326 325 325 325 324
339 340 341 342 342 342 343 343 341 342 343 344 344 342 334 338 339 339 339 340 340 339 339 337 337 338 336 335 336 335 334 335 336 337 336 334 333 332 336 336 334 333 334 336 336 336 335 335 335 335 335 335 335 334 333 332 331 330 328 325 323 321 321 326 331 332 332 332 333 332 331 332 331 330 331 329 328 326 326 325 326 325 324 324 323
337 338 340 342 342 341 342 342 341 342 342 342 342 343 335 332 335 336 336 338 338 337 335 333 330 330 330 329 327 329 327 329 326 332 330 333 329 331 332 334 334 333 334 335 335 335 335 335 335 335 334 334 333 332 330 330 329 327 325 324 321 321 329 330 331 332 332 331 332 331 331 331 330 329 328 327 326 326 325 325 325 325 324 323 323
336 337 339 340 341 341 341 340 340 340 340 341 341 341 338 330 332 330 332 334 334 333 331 325 322 322 324 321 323 331 332 332 333 333 324 332 323 326 331 334 334 334 336 334 335 335 335 335 334 334 332 329 326 325 326 327 326 324 322 320 319 327 328 329 330 330 332 332 331 331 330 330 329 329 327 327 326 326 325 325 324 323 321 321 321
333 335 338 339 340 341 340 340 339 339 340 340 341 341 339 336 341 340 339 336 329 326 330 332 327 330 320 327 330 329 329 330 330 327 331 331 329 324 329 333 334 334 335 335 334 334 334 334 333 331 328 324 319 323 321 319 320 320 318 317 325 326 327 329 330 330 331 332 330 330 330 330 328 328 327 326 325 325 324 323 322 322 322 322 321
332 334 336 337 339 340 340 339 339 339 339 339 340 340 339 340 339 338 337 330 333 333 333 330 330 329 329 329 327 328 328 328 328 328 328 321 328 324 328 330 332 331 334 334 334 333 333 332 329 326 323 318 319 319 319 320 320 314 315 322 323 324 325 328 329 330 330 331 330 328 330 328 327 326 326 327 325 324 322 322 321 321 321 320 319
332 333 335 337 339 339 339 340 339 339 338 338 339 340 339 339 339 338 336 335 334 333 331 330 329 328 328 328 327 327 327 328 323 322 323 330 328 323 325 325 327 325 326 331 331 331 329 326 323 320 317 317 318 317 318 318 318 319 320 320 321 322 325 327 327 328 329 329 330 327 329 328 327 328 328 326 324 322 321 322 320 319 320 319 319
334 335 335 335 337 338 339 339 339 339 338 338 338 339 339 338 338 338 336 334 333 332 331 329 328 327 327 326 326 325 326 327 327 327 328 328 329 329 329 327 327 325 320 323 322 320 319 318 317 316 317 317 317 316 318 317 317 318 318 318 319 320 322 324 326 327 327 328 329 325 327 328 326 327 325 324 323 322 321 319 320 320 318 318 319
334 333 334 335 337 338 339 339 339 339 338 338 337 338 338 338 337 337 335 333 332 331 330 329 328 327 326 325 324 325 325 325 326 326 326 328 328 326 325 324 323 321 319 318 317 316 316 316 316 315 314 314 314 315 315 316 316 316 316 317 317 319 321 322 324 325 325 326 327 321 325 327 325 324 325 326 325 323 322 319 320 319 319 318 319
333 333 335 335 337 338 338 339 338 338 338 339 338 337 338 338 338 337 336 333 331 330 329 328 328 326 326 324 325 324 324 325 325 325 326 326 326 324 323 322 320 318 317 316 314 314 314 314 314 313 312 312 312 312 312 313 314 315 314 314 315 316 319 320 322 324 323 323 320 317 322 327 325 324 324 324 324 323 322 320 320 320 319 318 318
333 334 335 335 335 336 338 338 338 338 338 338 338 337 338 338 338 336 336 333 331 329 330 329 327 326 325 324 324 324 324 324 324 324 325 325 325 323 321 320 317 315 314 315 313 312 312 312 312 312 312 311 311 311 311 311 311 313 314 313 313 314 316 316 318 320 321 320 321 319 320 323 325 325 325 325 325 324 322 321 321 321 319 319 318
331 333 335 335 335 336 337 337 337 337 338 339 337 337 338 338 337 336 336 330 333 331 329 327 327 326 325 324 324 323 323 323 323 324 323 324 323 322 321 319 315 313 313 312 313 311 311 311 312 312 312 311 311 311 310 310 310 311 312 312 312 312 313 314 316 316 317 317 318 319 319 321 326 326 324 323 323 323 321 321 321 320 319 318 318
332 333 334 335 336 336 336 336 337 337 338 338 337 337 337 337 337 336 337 331 334 332 330 327 327 325 325 324 324 324 323 323 323 322 323 323 322 321 320 317 314 312 312 312 310 311 310 310 310 311 311 310 310 309 310 310 309 309 309 311 310 310 310 311 312 313 313 314 315 318 315 320 323 326 324 323 323 323 320 321 321 320 319 319 318
332 332 333 335 336 336 336 336 337 336 338 337 337 336 336 336 337 337 337 334 335 333 330 329 327 325 324 324 323 323 323 323 322 322 323 322 321 320 319 317 313 311 311 310 309 310 310 310 311 310 310 310 309 308 309 309 308 307 307 308 308 308 308 308 309 309 310 311 313 314 317 315 321 323 325 323 323 322 321 321 320 320 319 319 318
330 331 333 335 336 336 336 337 336 337 336 336 336 337 336 336 336 337 336 336 336 334 332 330 327 325 325 324 323 322 322 321 321 320 321 321 321 320 319 317 314 310 310 309 308 309 309 309 308 308 308 308 307 307 307 308 307 305 305 305 305 307 306 306 307 306 307 309 310 312 314 319 316 319 322 325 323 322 321 320 319 319 319 319 319
329 332 333 334 334 336 336 337 337 337 335 336 336 337 337 336 335 336 335 336 335 335 333 331 329 327 326 324 323 323 322 321 320 320 319 320 320 320 319 318 313 309 308 307 307 307 307 307 306 306 306 306 306 306 306 306 306 303 303 303 304 304 304 305 305 304 305 307 308 308 310 313 316 313 315 321 323 322 320 320 320 319 319 319 319
326 327 331 332 333 335 336 337 337 337 336 336 337 336 337 336 335 336 335 336 335 334 332 332 330 328 326 325 324 323 322 322 321 320 320 319 319 319 319 318 313 309 307 306 305 306 306 306 305 305 305 306 306 305 305 305 303 302 303 301 302 302 302 304 303 303 302 305 305 306 307 309 311 315 318 316 320 321 323 320 320 319 318 319 319
323 323 326 331 332 334 334 335 335 337 335 336 336 337 337 337 336 336 335 335 335 335 335 333 332 330 328 327 326 324 323 323 322 320 319 319 319 319 319 319 314 310 306 305 305 304 305 304 303 305 304 304 304 303 305 305 303 302 301 300 301 300 300 301 300 301 301 301 301 303 305 307 309 310 312 317 312 314 320 321 320 319 318 320 319
322 323 324 326 329 332 333 334 335 335 336 335 336 336 337 337 336 331 336 335 335 335 335 335 333 331 329 327 326 325 323 324 323 322 320 319 318 318 319 319 315 311 308 305 304 303 304 304 304 306 304 303 302 302 303 303 302 301 300 300 300 299 299 299 300 300 300 299 300 300 302 304 305 308 307 312 315 315 313 319 321 319 318 320 319
321 322 322 322 325 328 331 332 333 334 335 336 336 336 337 336 336 336 337 336 336 336 335 336 335 332 329 328 326 325 324 324 323 322 321 320 319 318 318 318 316 312 309 306 305 306 305 305 304 306 309 305 303 303 301 301 300 299 298 298 298 297 298 298 298 298 298 299 299 299 299 300 301 302 304 306 310 314 312 314 319 319 318 319 318
318 319 321 322 323 325 327 330 333 334 334 335 335 335 336 336 336 335 332 335 334 335 335 335 335 334 331 328 328 326 325 325 324 323 322 321 319 318 318 318 316 314 311 308 307 307 306 306 304 304 306 305 303 303 302 300 300 298 296 296 296 297 297 297 296 296 296 297 297 298 299 296 297 299 299 300 304 307 311 312 313 313 311 318 319
317 317 318 320 321 322 324 325 328 332 332 333 334 335 335 335 336 335 334 335 335 335 335 333 333 334 333 331 328 326 323 324 324 323 322 321 319 319 318 318 316 314 312 308 306 305 304 304 304 303 304 304 304 304 303 302 300 298 296 295 294 294 295 295 294 293 294 295 296 298 297 294 294 295 296 296 298 300 303 307 312 315 315 314 320
315 316 316 317 318 319 320 323 324 328 331 332 332 332 332 331 330 330 332 333 334 332 334 335 335 335 335 332 331 329 325 322 323 322 321 321 319 317 317 315 314 313 312 308 306 303 303 303 305 304 302 301 302 302 301 300 299 298 296 294 294 295 296 297 296 294 294 295 295 296 296 296 294 295 295 295 295 295 297 300 302 307 310 314 315
312 314 315 315 317 318 318 319 322 324 327 328 329 329 327 328 329 329 329 330 330 331 331 333 334 335 335 333 331 330 328 325 323 322 321 319 320 319 317 314 313 312 312 310 308 306 304 304 304 303 302 300 298 299 298 299 297 297 297 297 296 296 295 295 295 294 293 294 294 294 295 294 294 294 295 294 294 294 294 295 297 298 302 308 312
305 310 312 314 316 317 317 318 320 321 324 327 328 328 329 329 329 329 330 330 328 328 329 331 332 333 333 332 331 330 329 326 323 324 322 321 319 317 315 313 313 312 312 312 311 306 304 303 303 301 302 300 299 298 298 299 298 299 299 299 298 298 297 296 296 296 295 294 293 293 294 293 294 294 294 292 292 292 292 292 293 294 296 300 307
301 306 310 312 313 315 317 318 318 319 322 325 327 327 328 329 329 327 328 326 326 329 331 329 329 330 333 334 334 333 331 328 326 324 323 321 320 319 317 315 313 312 311 312 311 308 305 303 302 302 300 300 299 298 299 302 302 300 302 301 298 297 301 298 298 297 297 296 294 293 293 293 293 293 293 293 292 292 291 290 291 293 294 296 301
298 301 305 308 311 313 315 317 317 318 320 322 322 325 326 324 322 321 322 326 323 318 322 322 327 329 329 330 332 333 332 330 328 326 324 324 323 321 320 318 315 312 310 310 309 308 304 303 303 303 303 299 297 297 299 301 304 301 299 300 298 298 297 302 303 303 300 297 294 293 292 293 294 294 292 291 293 292 290 290 290 292 294 296 298
297 299 302 306 309 311 313 315 316 317 318 319 320 320 320 320 315 314 314 315 316 318 320 322 324 324 327 328 329 331 332 332 331 328 324 325 323 321 320 319 317 313 312 311 311 309 306 305 304 303 302 301 299 297 296 298 302 305 307 295 292 292 297 302 298 301 293 296 295 294 293 292 293 293 292 292 291 291 291 291 291 292 293 293 294
296 298 301 304 308 310 311 313 314 315 317 317 319 319 321 320 317 317 317 317 317 316 318 320 321 321 324 328 328 328 330 331 332 331 328 325 325 323 321 320 319 317 315 315 314 312 309 306 304 304 303 304 304 298 295 296 299 302 305 308 304 304 300 297 300 301 291 294 296 295 294 293 292 292 293 293 292 290 289 289 291 291 291 291 292
295 296 297 301 304 307 309 311 314 314 314 315 316 318 319 320 319 320 321 319 319 319 320 322 324 324 324 324 326 326 328 328 327 330 330 327 326 325 323 322 321 319 314 315 313 311 310 308 306 304 304 303 303 300 298 296 296 298 301 302 301 295 298 298 297 297 296 294 288 291 292 294 292 291 292 292 293 292 291 289 290 292 292 291 291
296 295 296 298 302 305 307 309 311 312 313 314 315 318 319 319 319 319 320 320 319 320 319 319 317 316 321 323 323 323 324 327 328 328 327 326 326 327 326 325 323 321 316 314 315 315 313 311 307 305 305 304 303 302 301 299 295 296 299 298 299 298 296 295 295 298 296 294 296 291 289 291 291 290 290 291 292 291 291 291 290 291 292 292 291
295 296 297 298 300 301 304 305 308 309 309 312 314 315 318 319 319 318 317 318 319 318 311 310 315 314 316 319 320 321 321 322 323 325 325 326 323 325 327 327 325 323 317 317 315 314 313 311 308 306 305 305 304 304 304 302 298 302 299 296 297 298 297 295 294 293 292 295 298 299 296 290 289 289 290 291 291 292 291 292 291 291 291 291 291
294 295 295 297 299 301 303 305 305 307 307 309 312 313 314 315 316 316 316 317 315 311 308 309 309 308 312 314 316 318 319 319 319 320 322 322 323 323 322 322 323 323 318 319 317 315 313 312 310 308 306 304 305 303 303 303 301 301 302 301 297 296 296 295 295 293 292 293 295 298 300 295 292 293 290 290 290 290 291 291 291 290 290 291 291
294 295 296 297 298 301 302 305 303 302 304 308 309 310 311 313 315 315 315 315 313 312 309 308 305 302 306 309 311 314 316 317 317 317 318 319 320 318 319 319 319 316 316 317 317 317 316 314 313 310 307 305 304 303 302 303 304 303 303 303 302 299 299 299 297 298 295 293 292 293 295 297 298 300 295 291 291 291 290 290 289 290 290 290 290
Wind_Speed
6 7 5 7 10 10 10 11 8 4 9 13 13 11 10 10 10 10 10 10 11 11 11 12 15 13 13 14 15 16 16 16 16 16 16 15 16 16 17 17 17 17 17 17 17 17 18 17 17 17 17 17 17 17 17 19 20 19 20 20 20 19 19 18 17 17 18 19 20 20 19 20 20 20 20 19 18 16 13 13 14 14 13 16 20
9 7 6 8 11 11 11 11 9 8 12 13 12 11 11 10 10 10 10 10 10 11 10 13 13 13 14 14 15 16 16 16 16 16 15 15 15 15 15 15 15 15 16 16 18 18 19 17 17 16 16 17 17 18 18 18 18 18 19 19 19 18 18 17 16 15 15 15 15 16 18 19 18 18 19 19 19 18 14 14 14 14 12 19 19
10 8 6 10 11 12 12 12 10 11 13 13 12 11 11 10 11 11 10 10 11 11 11 12 13 14 15 15 16 16 16 17 17 16 15 16 16 16 16 15 14 15 15 17 18 18 17 18 18 17 17 17 18 18 18 17 17 18 18 18 18 18 17 17 16 16 15 15 15 15 16 18 18 19 19 20 20 18 14 14 15 16 14 20 19
10 8 6 7 9 9 11 12 9 12 13 13 12 12 11 11 11 11 10 10 11 12 11 10 16 16 16 14 15 16 17 17 16 15 15 15 15 15 15 15 15 15 16 17 18 18 18 18 18 18 17 17 17 17 17 17 18 18 18 18 17 17 17 16 15 15 14 13 12 9 8 11 14 18 19 19 20 20 18 20 20 21 21 20 21
10 6 6 7 7 9 11 10 8 13 13 13 12 12 11 11 10 11 11 10 11 12 12 10 12 14 14 14 15 15 16 17 16 15 15 15 15 15 15 15 15 14 15 19 19 19 17 18 18 18 18 18 17 17 17 17 18 18 18 18 17 17 16 16 15 15 14 14 11 8 9 12 12 18 18 21 20 18 18 19 20 20 20 22 23
9 6 7 6 7 10 11 10 10 13 13 13 12 11 11 11 11 11 12 12 12 12 11 12 13 13 14 14 13 15 15 16 16 15 14 14 15 15 14 14 13 15 18 17 17 17 18 18 18 18 18 17 17 17 16 17 17 17 17 17 17 17 17 17 16 15 13 11 10 8 10 12 11 12 20 20 20 18 20 21 21 20 20 22 22
11 8 8 8 7 9 10 10 13 13 13 13 11 11 11 11 11 11 11 12 12 12 11 13 13 13 13 13 14 14 17 16 16 15 14 14 14 15 14 13 16 17 15 17 18 18 19 18 17 17 17 16 16 16 17 17 17 18 17 17 17 17 17 16 15 14 12 10 8 10 11 12 12 10 19 20 20 20 21 21 22 22 23 22 22
9 8 8 8 7 10 10 10 12 13 13 12 11 11 11 11 11 11 11 11 11 11 13 14 13 13 12 12 14 15 16 16 16 14 13 13 15 14 13 14 16 15 16 16 17 17 17 17 16 15 15 16 16 16 17 17 17 17 17 18 18 17 17 16 14 13 10 9 9 10 11 11 12 10 18 19 21 21 21 22 23 23 23 20 16
9 9 8 7 8 10 10 10 12 13 13 12 11 11 11 11 11 11 11 10 9 10 10 13 13 12 11 13 14 15 16 15 14 14 13 14 14 13 13 13 14 16 16 15 15 15 15 15 16 15 15 16 16 16 17 17 17 17 18 18 17 17 16 15 14 12 10 10 12 11 11 12 12 12 18 23 23 22 19 18 20 23 23 18 19
9 9 7 6 8 9 9 9 12 13 13 12 11 11 11 10 10 11 11 10 9 9 11 14 13 14 13 13 13 14 16 15 14 14 13 13 14 13 13 14 13 14 14 14 16 15 15 16 16 16 16 15 16 16 17 17 17 17 18 17 17 16 15 14 12 11 10 12 13 13 11 12 12 12 18 22 23 23 20 17 17 17 17 20 22
10 8 7 7 8 8 9 11 11 11 13 12 11 11 11 10 10 11 11 10 9 9 8 13 13 13 12 13 13 14 16 15 14 13 12 13 14 13 13 14 13 12 13 15 14 15 16 16 15 16 16 16 16 16 16 16 17 17 17 18 17 17 16 14 11 10 12 12 13 11 11 12 11 11 19 22 23 21 16 17 18 19 20 21 19
9 7 6 5 8 8 9 9 10 12 12 11 12 11 11 11 11 11 11 10 10 9 10 15 14 13 12 13 14 14 15 14 13 13 11 12 12 14 14 13 12 12 14 14 14 15 16 15 15 15 15 15 15 15 16 16 16 17 17 17 16 15 15 12 9 10 11 12 12 12 12 13 13 14 20 21 21 19 18 19 18 19 19 19 19
9 8 6 6 7 7 8 9 9 10 11 12 12 11 11 11 11 11 11 10 11 10 8 10 13 13 12 13 14 13 14 15 14 12 11 12 13 14 13 12 12 12 12 13 13 14 15 15 15 14 15 15 15 15 15 15 16 16 16 15 14 13 11 9 7 7 7 8 7 10 12 12 12 17 19 20 20 19 18 17 18 18 18 17 17
9 8 7 6 5 7 8 8 8 10 10 10 11 11 11 11 11 11 11 11 10 9 7 12 12 12 12 12 12 12 13 14 14 13 11 10 14 12 12 12 12 11 12 12 13 13 14 15 15 14 14 14 14 15 15 15 16 15 14 14 14 12 9 8 7 6 7 7 7 8 11 10 11 17 19 18 18 18 18 18 18 18 18 18 17
9 8 8 6 5 7 8 7 7 9 9 9 9 10 11 11 10 10 11 11 10 9 8 10 12 12 11 11 11 13 12 14 13 13 10 9 11 12 12 10 11 11 12 12 13 13 13 14 14 13 14 13 13 14 15 15 15 14 14 13 13 11 8 6 5 5 6 6 7 10 10 10 14 17 18 18 17 17 17 17 18 19 18 17 17
9 9 8 7 5 5 7 6 7 7 8 8 8 8 9 9 9 10 10 10 11 10 8 10 12 11 10 11 11 13 13 13 13 12 10 7 10 11 12 11 10 9 12 14 12 13 13 14 14 13 12 12 13 14 14 14 14 13 13 12 11 10 9 6 5 5 6 6 5 5 8 9 15 18 18 18 18 17 17 17 17 17 17 16 17
8 7 8 8 5 5 7 7 5 7 7 8 7 7 8 8 8 9 9 9 10 10 9 8 9 10 10 11 12 12 12 12 12 11 9 7 8 11 12 10 9 9 11 11 12 13 13 13 12 12 12 12 13 14 13 14 13 12 12 12 11 9 9 7 5 5 5 5 4 5 8 9 14 18 19 18 16 16 16 16 15 16 16 16 15
8 8 8 8 5 5 6 6 5 5 5 6 7 7 7 8 8 8 8 8 9 9 9 9 9 9 9 9 11 11 11 11 10 9 8 7 7 9 10 9 9 9 10 12 12 11 11 12 11 12 12 13 13 13 13 12 12 12 12 11 10 9 9 8 6 5 5 4 5 6 9 12 16 17 16 16 17 17 17 15 15 14 14 14 15
7 8 8 8 6 4 5 5 4 5 5 4 4 6 8 8 8 8 8 8 8 8 8 9 9 9 10 10 9 9 8 8 7 8 7 6 6 7 8 8 8 8 9 11 11 11 11 11 11 12 12 13 12 12 12 12 11 12 12 10 10 10 10 6 5 5 5 5 6 8 9 12 15 17 17 17 16 16 15 14 14 14 14 14 13
7 8 7 7 7 5 5 5 5 5 5 5 5 4 6 8 8 8 8 8 8 8 8 9 10 10 11 11 10 9 8 8 10 8 7 6 8 6 11 8 7 8 10 10 10 11 11 11 12 12 12 12 12 12 11 11 11 11 10 9 9 9 6 4 5 5 4 5 6 8 10 14 17 16 16 16 15 15 14 14 15 14 14 13 14
6 8 7 7 7 6 6 5 5 6 5 5 5 5 5 7 6 7 8 8 8 8 9 9 9 9 9 10 9 7 5 5 6 5 6 5 8 9 10 8 7 6 7 10 10 10 11 11 12 12 12 13 11 11 11 11 11 10 10 8 9 5 4 4 4 4 4 3 6 7 11 13 16 16 13 14 14 14 14 13 13 13 13 11 12
7 8 8 8 7 7 6 6 5 6 6 6 4 4 4 5 5 4 5 6 6 7 7 5 5 5 8 7 5 5 4 4 4 5 4 5 7 9 9 8 7 6 6 9 10 11 11 11 11 12 13 11 9 5 6 9 10 9 7 8 6 4 3 4 5 4 4 5 7 9 9 11 14 16 15 12 11 13 14 13 12 11 12 12 11
8 8 8 8 8 7 6 7 7 6 7 6 5 4 5 5 6 4 4 4 5 6 5 5 4 4 4 4 4 3 4 4 4 4 4 5 8 9 9 9 7 7 6 8 9 11 11 11 11 12 11 9 5 4 4 3 4 6 5 4 4 3 4 4 5 4 4 4 7 9 7 13 13 11 12 16 14 13 11 11 11 11 11 10 11
9 9 8 8 8 9 9 6 7 7 7 6 5 5 4 5 4 5 4 3 4 4 4 4 4 4 4 3 3 3 4 3 5 7 6 4 6 9 10 9 9 8 9 6 8 10 11 10 11 10 6 3 4 3 3 3 3 2 3 3 3 3 3 4 4 5 5 5 7 8 6 10 11 15 16 13 12 9 11 12 10 9 10 11 11
7 7 6 9 9 8 9 8 6 7 7 6 5 7 5 4 5 5 5 3 4 5 4 3 4 4 4 3 3 4 3 3 3 3 3 3 4 4 4 4 4 4 7 5 4 5 4 3 4 4 3 4 4 3 3 3 3 3 3 2 3 3 3 3 4 5 5 4 5 8 6 7 9 12 10 9 9 10 10 8 10 10 10 10 10
5 8 10 8 8 7 8 8 7 8 7 7 6 5 6 5 6 5 5 4 4 5 5 4 3 4 4 4 4 4 3 3 3 3 3 3 4 4 3 4 4 4 4 4 3 3 3 2 3 3 3 2 3 3 2 3 3 3 3 2 2 2 2 2 2 4 3 1 2 4 5 9 12 11 10 15 12 11 10 9 10 9 9 9 9
8 8 8 8 8 9 8 7 8 8 9 7 7 5 7 7 5 5 6 5 4 5 5 5 4 4 4 4 5 4 4 3 3 3 4 3 4 3 3 3 4 4 2 4 4 2 2 3 3 3 3 3 3 2 2 2 2 4 3 2 2 2 1 1 1 4 2 2 1 4 3 9 11 12 11 11 11 11 10 10 10 10 9 8 9
6 8 8 8 7 10 9 7 7 8 7 7 8 7 6 6 5 5 6 6 5 4 6 6 5 5 4 4 3 4 4 4 4 4 3 3 4 3 3 3 3 3 3 3 4 3 2 2 3 3 4 3 3 3 2 2 2 2 4 2 2 2 1 1 0 2 2 2 1 2 3 5 6 9 11 11 13 11 10 10 10 10 9 9 8
10 10 7 8 9 8 9 10 9 9 8 7 8 6 6 7 5 6 6 7 6 5 4 4 5 6 5 4 5 5 4 4 4 4 3 3 3 4 4 3 3 3 3 3 3 4 3 2 3 3 3 3 3 3 2 2 1 1 2 3 2 2 2 0 0 1 1 1 0 1 3 4 4 9 10 7 9 11 11 11 10 9 9 8 8
13 11 9 8 7 8 10 12 11 9 8 8 7 7 7 8 8 6 6 7 6 5 6 4 4 5 6 5 4 4 5 5 5 4 5 4 3 3 4 4 3 3 3 4 3 3 4 3 2 3 3 3 3 2 3 3 2 1 1 3 2 2 1 1 1 1 0 0 0 1 2 5 5 6 8 11 11 10 10 11 12 10 9 9 8
10 12 10 9 7 9 10 11 10 9 7 8 7 7 7 8 7 7 5 7 7 6 6 5 4 4 4 6 5 4 4 4 5 5 4 4 4 4 4 4 4 4 3 4 3 3 3 3 3 3 3 3 2 2 1 2 2 1 1 1 1 1 2 1 1 1 1 1 0 0 2 5 8 8 9 13 12 11 10 10 10 10 9 9 9
12 13 10 8 8 9 10 11 12 9 9 9 8 7 8 8 7 6 7 6 7 7 6 5 6 5 5 5 5 5 5 4 5 5 5 5 5 5 4 4 4 4 4 4 4 3 3 3 3 2 3 2 3 2 1 2 2 1 1 1 1 0 0 1 1 1 1 1 1 1 1 1 3 7 8 12 12 13 12 11 10 10 10 10 10
9 8 9 9 11 9 9 10 11 10 9 10 10 8 7 8 9 7 6 8 7 6 7 7 6 6 6 6 6 6 6 5 5 5 5 4 5 5 6 5 4 4 4 5 6 4 4 4 3 3 3 3 3 2 2 2 2 2 2 2 2 2 1 1 1 1 1 1 1 1 1 1 1 2 5 8 13 11 11 12 12 13 11 11 11
7 6 8 12 9 7 7 6 9 12 12 9 8 8 8 6 8 8 8 7 7 7 7 7 7 7 7 7 7 7 6 5 6 6 5 5 5 5 5 5 4 4 4 5 5 5 5 5 4 4 4 4 4 3 3 3 2 1 1 1 1 0 0 1 1 1 2 1 1 1 1 1 2 2 3 5 10 9 11 13 14 13 12 12 13
6 8 12 11 10 9 7 8 8 9 11 12 10 8 8 8 7 8 9 9 8 7 6 7 7 7 8 9 10 9 8 9 8 6 6 6 6 6 6 6 6 5 5 4 5 4 4 5 6 5 4 3 3 3 4 3 4 4 2 2 2 1 1 1 1 1 1 2 2 2 2 2 2 1 1 2 3 8 9 13 15 14 14 15 14
11 10 9 8 10 11 10 10 10 11 9 10 12 11 9 8 7 6 7 8 8 8 8 8 9 10 10 10 10 10 9 8 9 9 8 7 6 6 7 6 7 6 4 5 5 6 5 4 5 6 7 6 5 5 4 4 3 3 2 2 2 1 1 1 2 1 1 1 1 2 2 2 2 2 2 1 2 3 5 10 13 12 14 18 17
10 10 11 10 10 11 11 12 13 13 12 9 8 10 10 11 10 9 9 9 9 8 8 7 6 6 5 8 10 11 11 8 7 7 7 9 10 8 5 6 8 7 7 7 7 7 7 7 7 7 6 6 7 6 5 4 4 3 3 3 2 2 2 3 2 2 2 3 3 3 2 2 2 4 3 2 2 2 4 6 11 13 14 13 14
9 10 10 11 12 10 11 12 12 11 10 11 9 6 7 9 9 8 7 9 8 7 7 9 8 8 8 7 6 9 12 16 14 12 9 7 5 7 9 9 9 8 7 7 6 5 5 5 6 5 4 3 6 7 7 5 4 4 3 2 1 2 2 2 1 1 2 3 3 3 2 1 2 2 3 3 3 2 3 5 7 7 8 5 12
8 10 9 9 8 9 9 10 11 11 11 10 11 9 6 5 6 9 9 8 6 5 5 5 5 5 7 10 9 7 6 5 6 8 8 10 10 8 7 11 9 8 7 7 7 6 5 6 7 7 5 3 2 4 4 5 4 3 4 3 2 2 2 1 1 2 2 2 3 3 2 3 2 2 2 2 3 3 3 3 3 3 4 8 4
8 8 10 9 10 10 9 9 10 10 9 8 8 8 8 7 7 5 9 11 10 10 8 7 7 7 7 8 9 9 8 7 7 7 7 6 5 6 3 2 6 6 6 7 7 7 9 8 9 7 6 4 1 1 1 4 3 2 2 1 0 1 3 1 2 4 3 3 3 3 4 4 4 2 3 2 2 3 4 4 3 4 4 6 8
10 11 11 12 12 12 10 13 10 9 9 9 8 9 9 8 8 9 10 7 8 9 9 9 9 9 10 10 11 12 13 13 10 8 8 7 6 6 8 9 8 7 7 8 8 8 8 6 4 3 6 6 4 4 4 4 4 1 2 3 3 3 4 3 5 6 5 4 3 4 3 4 4 4 4 2 2 2 3 4 4 4 4 4 5
11 10 12 13 12 10 12 11 7 9 11 11 9 9 9 9 8 9 8 7 6 7 8 8 9 9 8 6 6 6 8 11 12 13 10 10 8 5 5 6 7 9 12 10 9 9 9 8 7 5 4 8 7 5 6 8 4 8 4 3 4 5 7 6 8 9 7 6 5 5 5 5 6 6 4 3 4 5 4 3 4 5 5 4 4
6 10 11 9 10 10 11 9 8 9 9 10 9 10 8 8 8 5 6 3 3 5 6 5 4 5 8 9 7 6 7 8 10 11 10 10 10 8 8 7 9 7 5 5 8 8 8 10 9 8 6 5 5 4 8 11 7 3 2 2 5 3 5 5 9 12 9 9 6 7 6 6 7 6 5 5 5 4 4 3 5 6 6 5 4
8 7 8 10 9 9 9 8 8 7 7 8 9 7 6 4 3 3 3 4 4 2 2 2 4 6 7 5 9 10 9 8 8 9 9 13 14 14 13 10 9 10 10 10 9 9 8 9 8 9 8 8 7 7 8 10 5 9 3 8 1 1 5 9 10 9 11 12 9 9 6 8 6 7 4 6 5 4 5 3 4 4 4 4 3
7 8 7 8 7 10 8 8 7 8 7 8 9 6 6 5 4 3 2 2 1 1 2 4 6 6 6 8 9 7 8 7 7 9 8 7 8 9 9 10 12 10 9 9 9 10 12 11 10 10 11 11 10 6 7 9 10 10 7 5 2 2 9 3 3 5 5 10 13 10 9 9 8 6 6 6 5 6 6 5 4 4 5 6 5
6 6 6 7 7 7 7 7 7 7 8 9 9 8 8 8 6 6 6 6 7 6 8 10 8 8 10 8 8 8 9 10 10 9 8 9 11 12 12 11 10 10 10 11 11 11 10 8 9 10 12 11 12 10 7 6 9 9 9 7 3 5 3 2 2 8 2 7 6 10 10 9 7 7 7 6 8 9 7 8 5 6 7 8 7
6 5 4 6 6 6 7 8 8 7 8 8 9 8 8 8 10 10 9 9 9 7 7 6 7 7 6 6 7 7 8 8 6 8 9 11 10 9 10 11 11 12 12 11 11 12 12 15 14 14 12 11 10 9 9 6 6 9 9 12 9 1 2 4 7 3 7 0 5 6 7 9 8 8 9 8 7 8 8 8 9 9 9 7 7
5 4 4 3 6 6 7 8 7 7 7 8 9 9 9 9 9 9 8 8 9 10 8 8 5 4 7 9 7 7 7 8 10 9 7 6 9 10 9 7 7 7 7 10 11 12 10 9 10 12 10 8 10 11 11 9 11 10 9 13 13 6 2 2 1 5 4 5 4 2 4 6 6 8 8 8 9 11 10 9 10 9 8 8 6
3 3 1 2 4 5 6 6 7 6 6 8 9 8 8 9 9 7 8 8 8 7 5 5 7 6 8 7 7 7 7 7 7 7 8 9 8 7 9 11 10 9 7 8 9 8 9 12 14 13 16 13 12 14 10 10 10 15 8 11 10 11 7 5 2 2 5 7 13 9 7 0 4 7 9 11 11 10 11 11 8 8 7 7 9
3 2 2 3 4 4 5 6 5 5 5 7 7 7 7 7 8 8 10 8 7 5 4 5 6 5 7 7 7 7 6 6 6 7 7 7 7 8 7 7 7 8 9 11 13 13 12 11 10 10 11 12 9 10 12 9 10 9 11 7 7 8 8 8 9 8 7 8 14 9 6 8 10 8 9 11 14 12 11 9 9 10 11 10 9
4 5 5 5 4 5 5 5 4 3 5 6 7 7 7 7 8 9 10 10 9 7 6 6 5 4 6 7 6 7 6 6 6 7 7 7 7 7 7 7 7 6 6 5 6 8 9 10 11 12 13 13 11 11 11 12 11 12 14 14 13 11 13 13 12 12 11 11 8 12 11 10 14 11 7 9 8 11 10 10 12 11 8 8 9
Wind_Direction
191 158 170 182 150 140 138 127 130 135 108 93 90 92 95 90 88 94 96 90 94 102 101 102 93 90 92 95 93 90 91 91 93 91 92 91 89 89 86 83 80 79 79 77 77 77 76 73 72 72 73 76 78 75 77 71 72 67 66 68 67 66 64 61 55 62 70 75 80 83 84 83 81 78 79 79 77 72 68 71 77 78 78 78 77
167 166 172 163 143 143 138 132 130 124 107 98 97 99 95 89 89 92 99 99 97 99 101 101 93 91 95 97 95 90 88 87 87 87 84 87 90 88 86 80 79 80 80 80 77 73 72 73 77 79 80 79 76 74 74 75 72 67 67 66 64 62 62 60 55 51 59 62 65 71 77 79 78 80 81 81 80 77 74 70 71 79 79 79 78
147 155 168 165 146 144 140 134 132 124 108 106 107 104 102 101 97 99 101 105 109 100 97 103 107 92 95 97 96 96 91 86 84 84 85 83 80 81 82 81 81 81 82 82 79 76 76 77 77 77 77 79 77 76 78 78 70 65 65 64 63 61 60 57 55 53 54 56 63 69 77 79 81 83 84 86 85 85 85 86 87 87 89 85 79
143 150 156 156 142 140 139 138 140 122 113 112 111 110 111 107 104 103 100 102 101 93 92 86 88 92 89 90 95 96 91 85 82 83 86 88 86 84 82 81 81 81 83 85 83 81 79 81 84 82 79 77 80 80 78 77 72 68 66 65 63 61 58 55 52 50 48 48 48 55 73 83 88 91 85 81 79 69 66 69 71 74 79 80 80
143 147 151 147 140 139 141 141 152 125 122 117 114 115 113 111 107 104 103 95 93 107 110 107 101 86 88 94 96 91 88 87 84 83 87 88 88 87 86 87 87 90 89 84 85 82 79 78 77 79 82 82 82 81 81 78 73 72 69 66 63 60 57 54 51 48 46 47 40 53 72 89 85 80 87 81 74 72 76 78 78 77 79 80 79
147 148 151 146 144 146 150 154 145 129 124 118 116 119 118 116 111 107 107 107 106 104 104 104 92 88 90 93 95 93 90 88 88 87 86 88 89 88 89 88 90 90 92 93 89 89 87 81 80 83 82 81 80 81 81 81 80 77 71 67 65 61 58 55 54 51 49 48 50 67 74 81 83 86 84 85 83 80 82 79 79 77 78 78 77
147 152 151 151 151 156 157 158 140 134 125 120 121 122 122 120 117 111 109 107 105 105 104 99 97 92 92 95 91 90 92 90 85 81 86 92 90 89 90 91 85 84 87 90 89 88 87 86 88 85 81 82 86 87 85 84 84 81 79 74 68 64 62 58 55 54 47 57 66 76 80 81 83 86 86 82 83 83 80 79 76 74 71 70 73
147 153 152 152 156 160 162 160 142 132 126 126 129 128 127 122 117 114 110 111 114 113 112 106 98 94 95 100 97 101 97 91 90 95 100 101 99 97 92 87 92 98 98 94 90 87 89 93 91 87 87 91 89 87 86 87 86 85 81 77 72 67 65 61 56 54 48 62 62 78 79 80 81 80 80 82 76 74 75 76 76 76 76 77 75
151 154 154 152 156 156 163 163 140 134 133 134 134 134 129 123 118 115 113 108 109 113 112 106 102 102 102 102 103 101 96 92 93 98 102 105 104 100 98 95 89 95 95 98 97 95 93 91 91 92 92 92 92 90 91 90 87 86 84 80 74 70 66 64 65 62 65 77 80 80 81 83 82 81 81 78 77 74 70 71 72 72 72 72 74
154 156 157 154 157 158 161 155 142 142 140 140 138 136 131 126 122 118 116 112 110 117 111 106 106 106 109 105 105 103 97 93 92 99 105 107 106 107 103 100 102 100 100 100 98 96 94 92 91 94 92 90 93 93 90 90 91 89 87 84 78 72 69 67 66 63 71 80 84 81 76 80 87 86 85 85 82 80 77 74 76 72 71 71 72
157 157 153 156 159 157 161 156 144 145 143 141 140 135 133 128 123 118 117 115 113 104 94 105 103 100 101 99 96 100 99 94 95 101 108 108 105 105 104 103 101 103 100 100 102 100 96 93 96 96 96 96 92 92 93 90 89 88 86 85 79 75 70 71 67 82 82 82 83 82 74 74 85 87 87 86 85 83 79 80 81 78 74 74 74
159 158 154 153 160 160 167 155 150 148 145 146 141 140 137 134 129 126 121 120 119 117 110 101 98 98 101 99 102 103 102 100 101 105 110 112 110 101 94 94 97 99 102 102 98 98 98 95 95 97 98 98 96 93 92 91 90 89 88 85 78 75 75 66 73 85 82 82 83 84 85 85 87 86 87 86 84 84 84 82 83 83 82 80 78
161 163 155 158 160 167 168 160 156 150 153 149 147 146 142 139 135 130 127 124 123 115 101 99 95 99 100 98 98 103 106 106 105 110 114 116 110 99 102 106 103 98 101 106 103 98 97 98 98 103 102 100 98 96 95 95 94 89 85 81 76 71 61 50 73 78 79 80 81 85 88 86 88 91 86 83 84 84 83 84 85 86 85 83 83
159 166 164 160 158 167 166 165 158 154 157 153 151 147 145 141 137 133 129 126 121 118 110 110 108 107 104 103 105 106 112 111 112 116 122 120 113 112 111 108 109 109 105 102 102 101 102 103 103 102 101 98 101 100 99 96 95 87 78 74 68 64 60 67 73 80 82 77 72 78 87 88 89 88 86 86 84 85 84 81 81 79 82 84 81
165 167 167 162 158 166 161 167 158 159 156 152 150 149 144 142 138 135 131 128 126 120 112 111 109 108 108 113 115 117 113 114 116 115 119 116 117 114 110 107 102 109 111 103 101 105 105 105 107 103 99 104 101 100 103 96 89 80 73 67 65 60 55 76 68 75 76 74 83 90 89 87 89 92 91 90 88 88 89 89 88 84 80 81 81
166 167 165 168 156 154 167 167 158 158 154 149 151 150 147 141 140 137 134 132 129 125 114 116 118 116 116 117 121 123 120 117 115 116 116 121 121 120 112 107 108 112 112 111 111 109 107 106 104 104 103 106 106 108 101 94 89 82 74 69 66 66 63 75 79 71 75 73 69 72 91 96 95 93 92 89 89 87 86 87 86 85 85 83 84
167 165 167 172 160 157 165 169 157 155 150 148 151 150 143 140 141 139 137 133 132 131 124 113 119 120 125 123 119 116 115 114 114 118 116 117 111 102 108 116 114 124 120 114 112 111 108 105 106 106 108 110 112 107 97 92 86 82 78 73 68 65 69 71 72 61 62 60 67 77 92 97 96 97 93 92 92 92 91 85 81 84 85 85 88
169 169 174 173 165 155 156 167 156 152 147 147 147 149 142 138 137 136 135 135 136 135 130 113 86 83 78 96 120 121 121 120 118 117 118 104 83 100 108 119 122 122 122 111 112 110 110 111 110 111 114 111 111 102 92 89 88 83 79 75 72 67 69 64 70 63 54 53 69 79 95 95 99 97 94 96 97 97 98 98 95 93 89 89 88
170 177 178 177 173 148 157 162 160 158 147 147 148 147 146 139 136 137 136 138 135 133 127 110 102 94 92 98 107 109 107 103 106 110 104 100 78 106 108 107 125 130 122 112 110 112 113 117 115 115 112 113 106 93 90 87 85 84 82 80 79 77 72 70 58 61 70 79 91 96 100 101 99 97 98 97 98 93 88 89 90 85 90 96 100
180 185 181 188 174 165 162 166 163 164 159 158 154 149 147 141 140 138 138 137 133 125 117 113 108 106 106 105 104 103 100 100 105 111 111 90 69 89 100 106 119 128 122 122 118 118 121 120 121 119 116 104 91 86 84 83 83 83 81 81 85 85 78 77 71 71 76 73 87 104 102 105 101 99 97 96 92 92 93 91 89 94 95 96 97
187 190 190 189 172 176 170 169 165 160 160 159 158 159 150 141 139 139 138 135 130 120 112 109 107 110 112 111 108 105 104 103 106 108 111 99 81 97 109 115 120 119 118 124 123 125 125 125 123 119 98 86 78 69 66 73 75 77 79 82 92 85 79 81 83 83 75 78 100 102 108 109 103 96 97 96 97 96 95 97 96 105 111 108 94
190 192 195 195 188 185 177 173 171 166 163 161 162 163 153 148 140 138 137 132 120 118 117 117 111 110 117 116 112 116 112 110 110 119 112 111 91 102 111 117 112 98 114 129 130 128 127 124 125 107 95 87 71 81 76 64 61 66 73 90 86 86 84 88 89 87 74 90 104 110 119 121 112 106 107 102 100 98 100 103 107 100 89 91 100
195 194 197 195 200 194 186 176 176 172 166 167 167 155 158 155 157 142 130 132 128 123 123 122 122 121 114 113 120 118 118 116 118 125 125 115 101 103 106 106 109 112 125 127 131 127 122 124 108 93 90 81 76 76 75 70 75 65 79 76 85 86 97 95 93 90 85 88 107 111 126 112 97 101 103 104 100 98 93 94 100 104 105 103 101
194 194 192 193 196 199 202 188 178 174 172 171 170 163 162 161 159 163 153 134 137 134 128 129 131 127 125 121 120 116 116 115 113 114 114 113 99 103 105 98 88 72 72 90 101 100 107 94 88 87 83 74 85 81 85 86 82 78 77 79 87 92 98 107 103 100 102 105 114 119 147 122 107 107 107 107 106 106 105 109 104 104 111 110 110
190 179 188 195 196 194 198 202 191 184 181 172 173 173 173 163 167 167 163 147 149 152 145 136 133 133 126 129 121 120 118 119 124 123 112 115 102 100 97 92 90 84 89 79 80 68 75 103 91 81 85 97 97 94 107 105 96 96 87 83 87 93 102 106 115 113 110 124 137 161 159 118 126 124 118 117 115 106 105 111 116 116 118 122 120
162 180 195 196 194 193 193 194 189 194 193 185 188 168 166 190 173 169 163 154 157 163 161 155 141 137 141 134 132 127 130 127 131 128 124 120 114 108 102 109 103 103 100 98 90 98 113 110 97 93 91 83 92 107 105 116 122 107 104 90 90 92 106 108 141 113 118 130 149 217 182 134 123 137 142 123 119 117 125 131 124 124 125 129 125
189 199 190 198 193 196 194 186 192 192 194 188 188 181 180 197 180 172 169 171 156 170 171 169 163 146 148 150 146 146 140 140 136 137 133 135 127 119 118 117 119 119 118 119 107 108 121 109 103 96 93 88 81 80 86 86 99 117 105 95 88 83 80 93 181 113 125 112 56 19 324 146 145 139 123 133 125 126 129 130 129 135 141 141 129
201 203 197 195 189 195 193 186 195 193 191 179 186 191 187 184 182 171 173 174 166 169 184 185 170 168 157 160 149 148 152 152 151 150 143 147 138 119 119 122 117 117 129 124 124 118 111 100 110 108 106 99 95 75 72 73 77 83 115 107 95 99 61 4 347 89 118 114 61 339 281 178 156 135 145 142 136 139 141 146 144 148 151 143 136
207 205 200 195 195 190 188 198 202 194 192 184 192 185 188 192 183 177 190 164 183 176 169 158 177 178 173 163 160 153 160 158 158 157 151 151 136 134 135 129 129 128 133 127 131 131 123 125 127 127 124 128 126 121 109 81 85 87 114 122 128 121 120 128 292 76 49 93 7 2 223 179 180 155 158 161 156 150 156 156 155 152 149 147 145
208 205 200 204 192 185 194 205 205 200 191 186 194 191 190 193 201 188 185 166 183 178 163 168 170 174 181 177 174 167 167 166 161 156 162 155 150 140 139 142 141 144 147 142 151 139 140 140 132 132 137 132 128 117 137 129 117 122 150 141 148 146 138 155 173 125 123 312 27 185 276 208 169 170 160 154 153 158 185 160 160 160 159 156 158
197 206 204 205 189 184 195 201 204 200 195 193 190 193 187 198 196 195 183 183 185 174 175 172 166 174 171 178 173 173 162 165 163 164 171 159 163 163 157 147 148 158 157 140 146 145 142 149 155 151 149 141 124 125 143 130 133 130 87 157 124 155 145 176 181 155 179 209 209 264 285 253 183 179 177 166 166 170 174 170 170 169 168 166 167
202 208 203 192 193 194 193 194 203 197 201 199 190 191 192 192 197 192 198 191 187 186 179 176 181 169 170 174 177 174 172 165 167 171 173 169 170 176 166 168 162 158 158 147 144 145 143 132 123 110 113 119 125 132 131 145 137 115 100 39 342 26 149 222 206 174 190 196 208 222 242 250 207 193 195 177 170 182 184 182 177 173 177 176 176
216 205 200 195 203 199 196 195 195 197 201 203 199 194 191 188 191 197 191 187 193 189 185 188 185 178 174 179 182 177 174 168 177 175 173 171 170 176 185 186 167 158 153 148 136 138 139 136 124 128 123 129 137 140 144 157 157 159 179 173 184 181 189 234 268 281 264 241 253 250 251 268 255 245 235 203 182 199 188 184 178 182 187 184 183
202 200 198 209 205 203 200 196 195 195 199 207 200 196 192 192 190 194 193 189 189 191 192 188 186 187 183 182 184 183 180 179 170 175 174 178 180 186 183 184 172 159 147 150 152 157 153 152 147 150 155 164 167 167 171 171 169 162 186 167 224 204 264 233 250 304 316 283 323 304 288 264 250 229 207 218 192 194 192 191 188 194 188 190 190
187 198 207 207 198 205 198 210 199 208 195 201 209 206 191 193 196 194 192 194 197 203 196 191 193 193 191 199 195 190 189 178 178 168 180 180 181 186 189 188 166 164 160 166 151 160 158 163 160 159 163 176 173 174 187 181 173 181 181 193 204 182 227 239 278 261 286 327 313 309 282 269 268 273 245 208 203 204 201 194 199 195 198 191 202
206 205 206 199 208 203 200 207 202 210 210 206 203 203 202 201 199 192 191 191 196 201 203 202 200 193 190 189 190 196 197 195 176 176 176 182 186 192 192 168 166 171 167 164 164 171 176 162 194 172 165 183 173 182 186 182 183 178 180 199 193 193 217 235 239 236 245 261 261 277 278 279 280 275 258 244 207 195 233 213 204 202 214 201 203
207 203 202 200 211 207 202 205 207 207 212 210 206 206 197 198 202 201 198 192 201 205 202 200 197 210 209 198 193 187 194 205 205 202 189 182 182 187 198 184 170 174 177 180 187 185 175 178 188 207 196 165 181 173 181 181 174 176 180 196 190 188 210 221 212 219 250 229 209 221 250 261 298 296 287 270 221 207 212 226 213 208 214 223 203
213 211 208 204 210 205 208 209 211 210 209 213 215 208 205 195 194 197 200 206 207 210 211 205 202 187 184 206 213 210 203 197 191 185 197 209 218 194 173 178 177 182 179 182 198 187 196 191 184 195 218 182 185 183 188 179 165 167 177 185 178 215 237 248 249 283 263 284 299 263 238 252 250 256 280 293 296 256 213 223 211 191 181 181 211
211 210 211 214 211 210 210 215 214 209 209 207 209 221 225 220 202 189 194 209 207 203 197 211 211 194 195 188 190 208 227 234 213 203 200 193 189 204 202 179 175 179 177 179 180 182 188 200 198 191 192 209 229 215 184 163 164 169 178 171 157 218 257 272 316 264 243 249 265 276 287 258 262 268 268 288 294 301 275 257 232 196 194 171 173
210 206 211 210 214 214 211 215 214 210 206 203 200 206 213 221 222 219 217 216 221 225 218 216 202 210 206 192 194 197 195 204 208 201 208 210 219 200 156 140 163 161 177 184 188 181 193 194 208 191 180 169 132 149 92 146 134 148 208 266 102 296 259 267 276 263 257 226 228 236 247 263 255 246 239 242 266 298 303 297 277 254 198 192 185
213 206 206 211 211 210 201 217 208 196 198 200 198 198 201 203 214 217 221 213 212 210 214 213 212 214 210 210 200 198 194 195 194 195 206 210 207 208 184 164 164 175 188 204 198 190 189 194 192 190 184 176 169 140 134 130 138 205 288 273 275 221 243 233 246 244 236 234 212 222 222 235 231 237 227 204 218 250 266 274 278 290 241 220 186
221 205 211 213 211 208 210 218 186 195 203 202 201 203 203 206 202 211 212 204 198 204 213 211 212 207 205 214 208 205 201 197 192 191 192 202 206 187 187 188 178 184 193 197 196 190 180 184 166 171 198 192 205 168 158 138 214 208 187 238 270 245 236 231 235 237 224 223 220 214 215 223 226 223 224 226 192 195 212 252 263 255 254 246 225
219 205 218 210 207 208 215 208 197 194 202 202 200 210 205 208 209 208 196 209 220 204 204 186 193 215 207 197 207 207 194 199 195 192 189 196 199 197 193 188 195 200 212 196 189 186 190 189 178 182 169 200 193 177 185 195 201 118 69 42 253 301 240 230 232 234 215 216 211 222 220 226 224 206 218 235 232 212 209 209 241 246 242 237 227
234 224 210 210 208 212 211 201 196 192 193 199 206 207 198 190 190 180 187 188 197 211 215 213 198 207 224 225 219 211 205 204 204 211 203 198 199 203 206 196 190 186 191 201 200 204 192 192 183 196 167 169 200 207 202 207 184 144 203 211 195 155 310 235 228 231 215 220 207 222 204 224 221 213 200 228 219 202 208 209 240 256 264 263 253
223 219 205 206 204 209 201 189 183 185 186 184 189 174 154 152 127 69 68 72 27 161 193 229 219 215 220 211 220 208 206 213 202 196 202 212 212 212 204 202 200 187 182 195 204 201 196 196 187 184 186 191 207 194 196 207 215 208 185 110 70 261 233 278 62 251 151 215 224 216 211 212 211 213 224 232 207 218 193 212 216 226 231 227 236
245 229 213 211 201 198 183 181 179 180 185 182 178 172 179 169 153 158 175 190 201 188 200 210 209 208 215 220 218 214 221 219 211 205 202 204 203 203 203 200 201 199 201 209 212 214 207 200 195 197 202 208 214 199 207 206 234 230 239 243 158 229 187 229 109 261 98 235 242 222 221 215 198 210 229 230 207 213 205 214 210 222 208 217 209
267 261 247 214 201 188 180 179 179 182 179 177 173 172 180 186 190 197 203 204 213 220 220 222 220 223 222 224 221 214 212 219 232 225 210 200 206 205 201 200 203 206 203 206 202 200 202 205 200 202 202 200 204 213 204 191 214 253 240 245 259 103 359 136 229 347 289 303 238 226 230 225 210 213 224 226 215 223 223 220 225 224 226 224 223
294 308 277 238 189 186 173 177 179 176 178 170 174 179 186 189 193 204 207 213 214 226 206 219 223 219 215 225 224 223 219 221 224 222 226 223 207 200 208 227 224 219 205 212 214 215 213 210 203 208 208 194 194 205 209 190 182 218 212 234 243 242 165 292 10 225 265 294 268 257 254 233 213 226 227 229 219 221 221 215 220 222 222 215 206
354 343 315 230 184 168 165 161 169 168 173 172 174 188 190 187 195 199 213 221 223 229 205 215 214 214 225 224 222 224 219 224 228 228 223 222 220 229 228 221 210 206 200 214 222 217 210 203 205 204 210 208 201 208 210 206 195 227 189 225 231 236 235 252 296 182 236 260 264 235 240 76 257 242 230 223 234 226 221 224 215 224 223 217 208
335 4 40 87 115 127 135 148 163 165 163 169 175 183 187 179 193 203 215 223 218 228 187 204 212 202 223 226 225 226 224 225 226 233 236 229 232 228 234 243 237 222 211 210 208 208 207 212 217 219 216 219 213 212 217 220 212 222 217 209 201 217 235 250 241 239 252 221 254 248 238 221 241 225 216 227 226 226 224 221 223 225 223 221 218
15 47 50 52 80 116 135 139 160 140 155 168 172 180 186 188 199 204 212 219 216 214 210 227 192 221 227 229 224 227 228 229 225 231 232 237 239 234 231 233 231 226 211 203 209 206 207 208 210 208 212 212 211 206 212 222 222 222 225 226 225 206 212 219 219 222 221 235 248 258 251 237 246 264 217 216 213 219 216 213 220 222 206 215 218